Home   Weather   33°39'N, 85°49'W   Past weeks
Flag for USA

Past Weather in 33°39'N, 85°49'W, USA — Yesterday and Last 2 Weeks

Now
74 °F

Clear.


Feels Like: 72 °F
Forecast: 86 / 69 °F
Wind: No wind

Location: Talladega Municipal Airport

Current Time: Jun 25, 2019 at 11:44:46 pm

Latest Report: Jun 25, 2019 at 11:15 pm


Visibility: 10 mi

Pressure: 30.13 "Hg

Humidity: 95%

Dew Point: 73 °F

Location of 33°39'N, 85°49'WLocation

Past Weather in 33°39'N, 85°49'W — Graph

°F

33°39'N, 85°49'W Temperature Yesterday

Maximum temperature yesterday: 90 °F (at 2:55 pm)
Minimum temperature yesterday: 72 °F (at 11:55 pm)
Average temperature yesterday: 81 °F

High & Low Weather Summary for the Past Weeks

 TemperatureHumidityPressure
High93 °F (Jun 21, 3:15 pm)100% (Jun 12, 11:35 pm)30.23 "Hg (Jun 12, 11:35 pm)
Low55 °F (Jun 14, 5:35 am)34% (Jun 14, 1:55 pm)29.80 "Hg (Jun 19, 4:55 pm)
Average77 °F77%30.01 "Hg
* Reported Jun 10 10:15 pm — Jun 25 10:15 pm, 33°39'N, 85°49'W. Weather by CustomWeather, © 2019

Note: Actual official high and low records may vary slightly from our data, if they occured in-between our weather recording intervals... More about our weather records

Advertising

33°39'N, 85°49'W Weather History for the Previous 24 Hours

Scroll right to see more
 ConditionsComfort  
Time TempWeatherWind HumidityBarometerVisibility
10:15 pm
Tue, Jun 25
76 °FClear.No wind92%30.13 "Hg10 mi
9:55 pm76 °FClear.No wind90%30.12 "Hg10 mi
9:35 pm77 °FClear.No wind87%30.11 "Hg10 mi
9:15 pm77 °FPassing clouds.No wind88%30.11 "Hg10 mi
8:35 pm78 °FPassing clouds.No wind80%30.09 "Hg10 mi
8:15 pm80 °FClear.No wind78%30.08 "Hg10 mi
7:55 pm82 °FSunny.No wind69%30.08 "Hg10 mi
7:35 pm83 °FSunny.No wind67%30.08 "Hg10 mi
6:55 pm84 °FSunny.5 mph62%30.07 "Hg10 mi
6:35 pm85 °FSunny.6 mph61%30.06 "Hg10 mi
6:15 pm86 °FSunny.6 mph59%30.06 "Hg10 mi
5:55 pm87 °FSunny.8 mph56%30.06 "Hg10 mi
5:35 pm88 °FScattered clouds.7 mph55%30.06 "Hg10 mi
5:15 pm87 °FScattered clouds.3 mph57%30.06 "Hg10 mi
4:55 pm88 °FScattered clouds.5 mph55%30.06 "Hg10 mi
4:35 pm87 °FScattered clouds.9 mph55%30.06 "Hg10 mi
4:15 pm88 °FScattered clouds.6 mph56%30.07 "Hg10 mi
3:55 pm87 °FScattered clouds.6 mph56%30.08 "Hg10 mi
3:35 pm87 °FScattered clouds.5 mph56%30.08 "Hg10 mi
3:15 pm87 °FScattered clouds.7 mph57%30.09 "Hg10 mi
2:55 pm87 °FScattered clouds.7 mph57%30.09 "Hg10 mi
2:35 pm87 °FSunny.5 mph56%30.09 "Hg10 mi
2:15 pm86 °FScattered clouds.8 mph57%30.10 "Hg10 mi
1:55 pm86 °FScattered clouds.6 mph59%30.10 "Hg10 mi
1:35 pm86 °FScattered clouds.5 mph60%30.10 "Hg10 mi
12:55 pm85 °FScattered clouds.6 mph63%30.10 "Hg10 mi
12:35 pm84 °FScattered clouds.6 mph64%30.11 "Hg10 mi
12:15 pm83 °FScattered clouds.3 mph66%30.11 "Hg10 mi
11:55 am83 °FScattered clouds.5 mph67%30.11 "Hg10 mi
11:35 am82 °FScattered clouds.3 mph68%30.11 "Hg10 mi
11:15 am81 °FScattered clouds.5 mph69%30.11 "Hg10 mi
10:55 am81 °FSunny.7 mph69%30.11 "Hg10 mi
10:35 am81 °FSunny.5 mph71%30.11 "Hg10 mi
10:15 am80 °FSunny.3 mph72%30.10 "Hg10 mi
9:55 am80 °FSunny.3 mph72%30.10 "Hg10 mi
9:35 am79 °FSunny.5 mph74%30.10 "Hg10 mi
9:15 am78 °FSunny.3 mph76%30.11 "Hg10 mi
8:55 am77 °FSunny.No wind79%30.11 "Hg10 mi
8:35 am76 °FSunny.5 mph80%30.10 "Hg10 mi
8:15 am76 °FSunny.No wind84%30.10 "Hg10 mi
7:55 am74 °FSunny.No wind90%30.09 "Hg10 mi
7:35 am72 °FSunny.No wind94%30.09 "Hg10 mi
7:15 am71 °FSunny.No wind97%30.08 "Hg10 mi
6:55 am70 °FSunny.No wind98%30.08 "Hg10 mi
6:35 am70 °FSunny.No wind97%30.07 "Hg10 mi
6:15 am69 °FSunny.No wind98%30.06 "Hg10 mi
5:55 am69 °FSunny.No wind98%30.06 "Hg10 mi
5:35 am68 °FSunny.No wind99%30.05 "Hg10 mi
5:15 am69 °FClear.No wind98%30.05 "Hg10 mi
4:55 am68 °FClear.No wind99%30.04 "Hg10 mi
4:15 am68 °FClear.No wind99%30.03 "Hg10 mi
3:15 am67 °FClear.No wind99%30.01 "Hg10 mi
2:55 am68 °FClear.No wind98%30.01 "Hg10 mi
2:35 am68 °FClear.No wind98%30.01 "Hg10 mi
2:15 am69 °FClear.No wind98%30.00 "Hg10 mi
1:55 am69 °FClear.No wind97%29.99 "Hg10 mi
1:35 am69 °FClear.No wind96%29.99 "Hg10 mi
1:15 am70 °FClear.No wind95%29.99 "Hg10 mi
12:55 am70 °FClear.No wind93%29.99 "Hg10 mi
12:35 am71 °FClear.No wind92%29.98 "Hg10 mi
12:15 am71 °FClear.No wind91%29.99 "Hg10 mi
11:55 pm
Mon, Jun 24
72 °FClear.No wind89%29.99 "Hg10 mi
11:35 pm72 °FClear.No wind89%29.99 "Hg10 mi
11:15 pm72 °FClear.No wind89%29.99 "Hg10 mi
Weather by CustomWeather, © 2019

See weather overview